This is the latest recevied weather packets stored in our database for station/object KG5MMT-15. If no packets are shown the sender has not sent any weather packets the latest 10 day(s).
| Time | Temp. | Humidity | Pressure | Rain* | Wind** | Luminosity | Snow |
|---|---|---|---|---|---|---|---|
| 1787888581 | 16.67° C | 71% | 0 hPa | 0 mm | - | - | - |
| 1787888281 | 16.67° C | 76% | 0 hPa | 0 mm | - | - | - |
| 1787887981 | 16.67° C | 74% | 0 hPa | 0 mm | - | - | - |
| 1787887681 | 17.78° C | 74% | 0 hPa | 0 mm | - | - | - |
| 1787887381 | 17.78° C | 69% | 0 hPa | 0 mm | - | - | - |
| 1787887081 | 17.78° C | 69% | 0 hPa | 0 mm | - | - | - |
| 1787886781 | 17.78° C | 68% | 0 hPa | 0 mm | - | - | - |
| 1787886481 | 17.22° C | 68% | 0 hPa | 0 mm | - | - | - |
| 1787886181 | 17.22° C | 73% | 0 hPa | 0 mm | - | - | - |
| 1787885881 | 16.67° C | 72% | 0 hPa | 0 mm | - | - | - |
| 1787885581 | 16.67° C | 74% | 0 hPa | 0 mm | - | - | - |
| 1787885281 | 16.67° C | 73% | 0 hPa | 0 mm | - | - | - |
| 1787884981 | 16.11° C | 78% | 0 hPa | 0 mm | - | - | - |
| 1787884681 | 16.67° C | 76% | 0 hPa | 0 mm | - | - | - |
| 1787884381 | 16.67° C | 76% | 0 hPa | 0 mm | - | - | - |
| 1787884081 | 17.22° C | 74% | 0 hPa | 0 mm | - | - | - |
| 1787883781 | 17.22° C | 71% | 0 hPa | 0 mm | - | - | - |
| 1787883481 | 16.67° C | 71% | 0 hPa | 0 mm | - | - | - |
| 1787883181 | 16.67° C | 77% | 0 hPa | 0 mm | - | - | - |
| 1787882881 | 16.67° C | 77% | 0 hPa | 0 mm | - | - | - |
| 1787882581 | 16.67° C | 78% | 0 hPa | 0 mm | - | - | - |
| 1787882281 | 16.67° C | 77% | 0 hPa | 0 mm | - | - | - |
| 1787881981 | 16.67° C | 79% | 0 hPa | 0 mm | - | - | - |
| 1787881681 | 16.67° C | 80% | 0 hPa | 0 mm | - | - | - |
| 1787881381 | 16.67° C | 82% | 0 hPa | 0 mm | - | - | - |
* Rain latest hour (hover to see other rain measurements)
** Current wind speed in m/s (hover to see current wind gust speed)